When you browse on this site, cookies collect data to enhance your experience and personalize the content and advertising you see.
Visit our Privacy Policy to learn more. By continuing to use the site, you agree to this use of cookies and data.
  • In Portugal
  • List of Countries
  • For 7 days
  • Water Temperature
  • Satellite Maps
  • Weather Map
  • Weather Widgets
  • user-avatar
    Login

    Hourly Weather Nesebyr

    Today, 15 December, Saturday

    Time Temperature Precipitation Wind Pressure Humidity
    00:00 +5°C° 0.1 mm 3 mps 763 mmHg 92%
    01:00 +7°C° 0.1 mm 3 mps 763 mmHg 93%
    02:00 +7°C° 0.1 mm 3 mps 762 mmHg 94%
    03:00 +7°C° 0.1 mm 3 mps 762 mmHg 94%
    04:00 +7°C° 0.1 mm 3 mps 762 mmHg 95%
    05:00 +7°C° 0.1 mm 3 mps 762 mmHg 96%
    06:00 +8°C° 0.1 mm 2 mps 762 mmHg 96%
    07:00 +8°C° 0.1 mm 2 mps 762 mmHg 96%
    08:00 +8°C° 0.1 mm 2 mps 762 mmHg 96%
    09:00 +9°C° 0.1 mm 2 mps 762 mmHg 94%
    10:00 +10°C° 0.1 mm 2 mps 762 mmHg 92%
    11:00 +11°C° 0.1 mm 3 mps 762 mmHg 90%
    12:00 +11°C° 0 mm 3 mps 762 mmHg 88%
    13:00 +12°C° 0 mm 3 mps 761 mmHg 86%
    14:00 +13°C° 0 mm 3 mps 761 mmHg 84%
    15:00 +12°C° 0.1 mm 3 mps 761 mmHg 87%
    16:00 +12°C° 0.1 mm 3 mps 761 mmHg 90%
    17:00 +11°C° 0.1 mm 3 mps 761 mmHg 93%
    18:00 +11°C° 0.3 mm 3 mps 761 mmHg 93%
    19:00 +11°C° 0.3 mm 3 mps 761 mmHg 93%
    20:00 +11°C° 0.3 mm 3 mps 761 mmHg 92%
    21:00 +11°C° 0.1 mm 3 mps 761 mmHg 91%
    22:00 +10°C° 0.1 mm 3 mps 761 mmHg 90%
    23:00 +10°C° 0.1 mm 3 mps 761 mmHg 89%

    Tomorrow, 16 December, Sunday

    Time Temperature Precipitation Wind Pressure Humidity
    00:00 +10°C° 0.1 mm 3 mps 761 mmHg 89%
    01:00 +10°C° 0.1 mm 3 mps 761 mmHg 89%
    02:00 +10°C° 0.1 mm 3 mps 761 mmHg 88%
    03:00 +10°C° 0.1 mm 3 mps 760 mmHg 90%
    04:00 +10°C° 0.1 mm 3 mps 760 mmHg 91%
    05:00 +10°C° 0.1 mm 2 mps 760 mmHg 93%
    06:00 +10°C° 0.1 mm 2 mps 760 mmHg 93%
    07:00 +10°C° 0.1 mm 2 mps 760 mmHg 94%
    08:00 +10°C° 0.1 mm 3 mps 760 mmHg 94%
    09:00 +10°C° 0.1 mm 3 mps 760 mmHg 92%
    10:00 +11°C° 0.1 mm 3 mps 760 mmHg 89%
    11:00 +12°C° 0.1 mm 3 mps 760 mmHg 87%
    12:00 +12°C° 0.1 mm 3 mps 760 mmHg 86%
    13:00 +12°C° 0.1 mm 3 mps 760 mmHg 86%
    14:00 +12°C° 0.1 mm 3 mps 760 mmHg 86%
    15:00 +12°C° 0.1 mm 3 mps 760 mmHg 89%
    16:00 +11°C° 0.1 mm 3 mps 760 mmHg 92%
    17:00 +11°C° 0.1 mm 3 mps 760 mmHg 95%
    18:00 +10°C° 0.1 mm 3 mps 760 mmHg 95%
    19:00 +10°C° 0.1 mm 3 mps 761 mmHg 96%
    20:00 +10°C° 0.1 mm 3 mps 761 mmHg 97%
    21:00 +10°C° 0.1 mm 3 mps 761 mmHg 96%
    22:00 +10°C° 0.1 mm 3 mps 762 mmHg 96%
    23:00 +10°C° 0.1 mm 3 mps 762 mmHg 96%

    Day after tomorrow, 17 December, Monday

    Time Temperature Precipitation Wind Pressure Humidity
    00:00 +10°C° 0.1 mm 3 mps 762 mmHg 95%
    01:00 +10°C° 0.1 mm 3 mps 762 mmHg 95%
    02:00 +10°C° 0.1 mm 3 mps 762 mmHg 94%
    03:00 +9°C° 0.1 mm 3 mps 762 mmHg 94%
    04:00 +9°C° 0.1 mm 3 mps 762 mmHg 94%
    05:00 +9°C° 0.1 mm 3 mps 762 mmHg 93%
    06:00 +9°C° 0.1 mm 3 mps 762 mmHg 93%
    07:00 +9°C° 0.1 mm 3 mps 762 mmHg 93%
    08:00 +9°C° 0.1 mm 3 mps 762 mmHg 93%
    09:00 +8°C° 0.1 mm 4 mps 762 mmHg 91%
    10:00 +10°C° 0.1 mm 4 mps 762 mmHg 89%
    11:00 +10°C° 0.1 mm 5 mps 762 mmHg 87%
    12:00 +10°C° 0.1 mm 4 mps 762 mmHg 88%
    13:00 +10°C° 0.1 mm 4 mps 762 mmHg 89%
    14:00 +10°C° 0.1 mm 3 mps 761 mmHg 90%
    15:00 +10°C° 0.1 mm 3 mps 761 mmHg 92%
    16:00 +10°C° 0.1 mm 3 mps 761 mmHg 93%
    17:00 +10°C° 0.1 mm 3 mps 761 mmHg 94%
    18:00 +10°C° 0.1 mm 3 mps 761 mmHg 95%
    19:00 +9°C° 0.1 mm 3 mps 762 mmHg 95%
    20:00 +9°C° 0.1 mm 3 mps 762 mmHg 95%
    21:00 +9°C° 0.1 mm 3 mps 762 mmHg 95%
    22:00 +9°C° 0.1 mm 3 mps 762 mmHg 95%
    23:00 +9°C° 0.1 mm 3 mps 762 mmHg 96%

    18 December, Tuesday

    Time Temperature Precipitation Wind Pressure Humidity
    00:00 +9°C° 0.2 mm 3 mps 762 mmHg 96%
    01:00 +9°C° 0.2 mm 3 mps 761 mmHg 96%
    02:00 +9°C° 0.2 mm 3 mps 761 mmHg 97%
    03:00 +9°C° 0.3 mm 3 mps 761 mmHg 97%
    04:00 +9°C° 0.3 mm 3 mps 761 mmHg 97%
    05:00 +9°C° 0.3 mm 3 mps 761 mmHg 97%
    06:00 +9°C° 0.4 mm 3 mps 761 mmHg 96%
    07:00 +8°C° 0.4 mm 4 mps 761 mmHg 96%
    08:00 +8°C° 0.4 mm 4 mps 762 mmHg 96%
    09:00 +10°C° 0.3 mm 4 mps 762 mmHg 95%
    10:00 +9°C° 0.3 mm 5 mps 762 mmHg 94%
    11:00 +9°C° 0.3 mm 5 mps 762 mmHg 92%
    12:00 +9°C° 0.3 mm 6 mps 762 mmHg 92%
    13:00 +9°C° 0.3 mm 6 mps 761 mmHg 91%
    14:00 +9°C° 0.3 mm 7 mps 761 mmHg 90%
    15:00 +8°C° 0.6 mm 7 mps 761 mmHg 90%
    16:00 +7°C° 0.6 mm 8 mps 762 mmHg 90%
    17:00 +6°C° 0.6 mm 8 mps 762 mmHg 89%
    18:00 +6°C° 0.3 mm 8 mps 762 mmHg 88%
    19:00 +5°C° 0.3 mm 8 mps 762 mmHg 88%
    20:00 +5°C° 0.3 mm 9 mps 763 mmHg 87%
    21:00 +5°C° 0.2 mm 8 mps 763 mmHg 87%
    22:00 +4°C° 0.2 mm 8 mps 763 mmHg 87%
    23:00 +4°C° 0.2 mm 8 mps 763 mmHg 87%

    19 December, Wednesday

    Time Temperature Precipitation Wind Pressure Humidity
    00:00 +2°C° 0.2 mm 8 mps 763 mmHg 87%
    01:00 +2°C° 0.2 mm 8 mps 763 mmHg 87%
    02:00 +1°C° 0.2 mm 8 mps 764 mmHg 87%
    03:00 +1°C° 0.1 mm 8 mps 764 mmHg 86%
    04:00 0°C° 0.1 mm 7 mps 764 mmHg 86%
    05:00 0°C° 0.1 mm 7 mps 764 mmHg 86%
    06:00 0°C° 0 mm 7 mps 764 mmHg 85%
    07:00 -1°C° 0 mm 7 mps 765 mmHg 85%
    08:00 -1°C° 0 mm 6 mps 765 mmHg 84%
    09:00 +1°C° 0 mm 6 mps 765 mmHg 81%
    10:00 +1°C° 0 mm 6 mps 765 mmHg 77%
    11:00 +1°C° 0 mm 6 mps 766 mmHg 73%
    12:00 +2°C° 0 mm 6 mps 765 mmHg 72%
    13:00 +3°C° 0 mm 5 mps 765 mmHg 71%
    14:00 +3°C° 0 mm 5 mps 765 mmHg 69%
    15:00 +3°C° 0 mm 5 mps 765 mmHg 74%
    16:00 +3°C° 0 mm 4 mps 765 mmHg 78%
    17:00 +2°C° 0 mm 3 mps 765 mmHg 82%
    18:00 +2°C° 0 mm 3 mps 765 mmHg 83%
    19:00 +2°C° 0 mm 2 mps 766 mmHg 85%
    20:00 +2°C° 0 mm 2 mps 766 mmHg 87%
    21:00 +2°C° 0 mm 2 mps 766 mmHg 87%
    22:00 +3°C° 0 mm 1 mps 766 mmHg 87%
    23:00 +3°C° 0 mm 1 mps 766 mmHg 88%

    20 December, Thursday

    Time Temperature Precipitation Wind Pressure Humidity
    00:00 +3°C° 0 mm 1 mps 766 mmHg 87%
    01:00 +3°C° 0 mm 1 mps 766 mmHg 87%
    02:00 +3°C° 0 mm 1 mps 766 mmHg 87%
    03:00 +3°C° 0 mm 1 mps 766 mmHg 87%
    04:00 +3°C° 0 mm 1 mps 766 mmHg 86%
    05:00 +3°C° 0 mm 1 mps 767 mmHg 86%
    06:00 +3°C° 0 mm 1 mps 767 mmHg 85%
    07:00 +3°C° 0 mm 1 mps 767 mmHg 84%
    08:00 +3°C° 0 mm 1 mps 768 mmHg 84%
    09:00 +4°C° 0 mm 1 mps 768 mmHg 80%
    10:00 +5°C° 0 mm 1 mps 768 mmHg 76%
    11:00 +6°C° 0 mm 1 mps 768 mmHg 73%
    12:00 +7°C° 0 mm 1 mps 768 mmHg 72%
    13:00 +7°C° 0 mm 1 mps 767 mmHg 71%
    14:00 +8°C° 0 mm 1 mps 767 mmHg 70%
    15:00 +6°C° 0 mm 2 mps 767 mmHg 75%
    16:00 +6°C° 0 mm 2 mps 767 mmHg 79%
    17:00 +5°C° 0 mm 2 mps 768 mmHg 84%
    18:00 +5°C° 0 mm 2 mps 768 mmHg 87%
    19:00 +4°C° 0 mm 2 mps 768 mmHg 89%
    20:00 +4°C° 0 mm 2 mps 768 mmHg 91%
    21:00 +4°C° 0 mm 2 mps 768 mmHg 91%
    22:00 +4°C° 0 mm 2 mps 768 mmHg 92%
    23:00 +4°C° 0 mm 2 mps 768 mmHg 92%
    Show more